Stations météo

réclame
Mon MeteoGroup
Rostherne No 2, Grande-Bretagne (3351): Température de l'air & dewpoint: 18.01.2018 09:00:00 - 24.01.2018 09:00:00 (GMT)Rostherne No 2, Grande-Bretagne (3351): Vitesse du vent & gusts: 18.01.2018 09:00:00 - 24.01.2018 09:00:00 (GMT)Rostherne No 2, Grande-Bretagne (3351): Direction du vent: 18.01.2018 09:00:00 - 24.01.2018 09:00:00 (GMT)Rostherne No 2, Grande-Bretagne (3351): reduced air pressure: 18.01.2018 09:00:00 - 24.01.2018 09:00:00 (GMT)Rostherne No 2, Grande-Bretagne (3351): visibility: 18.01.2018 09:00:00 - 24.01.2018 09:00:00 (GMT)Rostherne No 2, Grande-Bretagne (3351): Ensoleillement: 18.01.2018 09:00:00 - 24.01.2018 09:00:00 (GMT)Rostherne No 2, Grande-Bretagne (3351): Quantités de précipitations: 18.01.2018 09:00:00 - 24.01.2018 09:00:00 (GMT)
Date & Time tt [°C] td [°C] ff [km/h] ff [knt] fx [km/h] fx [knt] dd ppp [hPa] vv [km] sd [min] rr [mm]
24.01.2018 09:00:00 7,2 4,8 24 13 46 25 WSW 997,4 15 0 1,0
24.01.2018 08:00:00 8,9 6,7 26 14 68 37 WSW 996,6 6 0 1,4
24.01.2018 07:00:00 12,3 9,3 24 13 59 32 SW 994,4 8 0 0,2
24.01.2018 06:00:00 13,1 8,6 34 18 61 33 SSW 995,1 50 0 0,0
24.01.2018 05:00:00 11,2 7,9 21 11 48 26 S 996,6 21 0 0,0
24.01.2018 04:00:00 10,3 7,1 29 16 50 27 S 998,5 14 0 0,0
24.01.2018 03:00:00 11,0 7,2 24 13 48 26 S 1000,8 15 0 0,0
24.01.2018 02:00:00 11,0 7,1 22 12 - - S 1002,6 14 0 0,0
24.01.2018 01:00:00 10,7 7,1 22 12 - - S 1003,9 12 0 0,0
24.01.2018 00:00:00 10,4 6,7 21 11 - - S 1005,6 15 - 0,0
23.01.2018 23:00:00 9,8 6,3 16 9 - - S 1007,1 13 0 0,0
23.01.2018 22:00:00 9,8 6,6 15 8 - - S 1008,0 12 0 0,0
23.01.2018 21:00:00 9,2 6,1 13 7 - - S 1008,5 10 0 0,0
23.01.2018 20:00:00 9,8 5,7 11 6 - - S 1008,6 13 0 0,0
23.01.2018 19:00:00 10,3 5,9 13 7 - - SSW 1008,1 12 0 0,0
23.01.2018 18:00:00 11,4 6,3 18 10 - - WSW 1007,9 16 0 0,0
23.01.2018 17:00:00 11,6 7,1 18 10 - - WSW 1007,6 17 0 0,0
23.01.2018 16:00:00 12,9 7,9 21 11 - - WSW 1006,9 40 0 0,0
23.01.2018 15:00:00 12,1 9,3 16 9 - - SSW 1006,0 40 0 0,0
23.01.2018 14:00:00 12,7 9,2 21 11 55 30 SSW 1005,9 45 0 0,0
23.01.2018 13:00:00 12,5 8,5 18 10 - - SSW 1006,4 28 0 0,0
23.01.2018 12:00:00 12,9 7,9 24 13 50 27 SW 1007,2 23 12 0,0
23.01.2018 11:00:00 11,3 9,6 21 11 - - S 1007,3 45 0 0,0
23.01.2018 10:00:00 10,5 8,9 24 13 - - S 1007,8 25 0 0,0
23.01.2018 09:00:00 9,6 8,0 22 12 - - S 1008,3 45 0 0,0
23.01.2018 08:00:00 8,7 7,1 22 12 - - S 1008,7 35 0 0,0
23.01.2018 07:00:00 8,4 6,9 26 14 - - S 1008,8 28 0 0,0
23.01.2018 06:00:00 8,0 6,3 22 12 - - S 1009,8 21 0 0,2
23.01.2018 05:00:00 7,8 5,3 16 9 - - S 1010,9 26 0 0,0
23.01.2018 04:00:00 8,2 5,3 16 9 - - S 1011,9 40 0 0,0
23.01.2018 03:00:00 7,7 5,0 15 8 - - S 1012,9 40 0 0,0
23.01.2018 02:00:00 7,2 4,3 15 8 - - S 1013,8 45 0 0,0
23.01.2018 01:00:00 7,1 4,0 11 6 - - S 1014,7 40 0 0,0
23.01.2018 00:00:00 7,0 4,2 9 5 - - S 1015,1 40 - 0,0
22.01.2018 23:00:00 6,8 4,3 11 6 - - SSW 1015,6 40 0 0,0
22.01.2018 22:00:00 6,6 4,4 11 6 - - SSW 1015,9 40 0 0,0
22.01.2018 21:00:00 6,7 4,4 9 5 - - SSW 1015,7 30 0 0,0
22.01.2018 20:00:00 7,1 4,3 9 5 - - SSW 1015,6 35 0 0,0
22.01.2018 19:00:00 7,3 3,7 8 4 - - WSW 1015,5 45 0 0,0
22.01.2018 18:00:00 7,7 3,6 11 6 - - WSW 1015,0 35 0 0,0
22.01.2018 17:00:00 7,5 4,1 13 7 - - W 1014,3 40 0 0,0
22.01.2018 16:00:00 7,8 4,1 26 14 - - W 1013,6 35 0 0,0
22.01.2018 15:00:00 8,1 4,6 24 13 - - W 1012,8 27 0 0,0
22.01.2018 14:00:00 8,5 5,4 28 15 46 25 W 1012,4 16 0 0,0
22.01.2018 13:00:00 8,3 5,0 24 13 - - W 1011,4 25 0 0,0
22.01.2018 12:00:00 8,1 5,3 26 14 - - W 1010,5 17 0 0,0
22.01.2018 11:00:00 7,8 5,5 22 12 - - W 1010,1 12 12 0,0
22.01.2018 10:00:00 6,9 5,7 16 9 - - W 1009,5 9 6 0,2
22.01.2018 09:00:00 6,8 4,3 16 9 - - W 1008,6 11 0 0,0
22.01.2018 08:00:00 6,6 4,7 13 7 - - W 1007,6 10 0 0,0
22.01.2018 07:00:00 6,9 4,8 21 11 - - W 1006,7 12 0 0,0
22.01.2018 06:00:00 7,2 4,4 15 8 - - W 1006,2 10 0 0,0
22.01.2018 05:00:00 7,1 3,7 11 6 - - W 1005,7 13 0 0,0
22.01.2018 04:00:00 6,5 3,2 15 8 - - W 1005,0 15 0 0,0
22.01.2018 03:00:00 6,7 3,4 18 10 - - W 1004,8 14 0 0,0
22.01.2018 02:00:00 6,8 3,3 22 12 - - W 1003,6 14 0 0,0
22.01.2018 01:00:00 7,6 4,8 21 11 - - W 1004,7 13 0 0,0
22.01.2018 00:00:00 7,8 5,5 21 11 - - W 1005,2 15 - 0,0
21.01.2018 23:00:00 7,9 5,1 9 5 - - WSW 1005,0 23 0 0,0
21.01.2018 22:00:00 8,0 6,3 24 13 - - W 1004,2 11 0 0,0
21.01.2018 21:00:00 5,5 5,2 5 3 - - SW 1003,9 6 0 0,0
21.01.2018 20:00:00 4,5 4,2 4 2 - - SW 1003,3 3,3 0 0,2
21.01.2018 19:00:00 4,0 3,7 9 5 - - S 1002,9 6 0 0,4
21.01.2018 18:00:00 3,6 3,2 13 7 - - S 1003,2 7 0 0,2
21.01.2018 17:00:00 2,9 2,4 11 6 - - SSE 1003,8 22 0 0,4
21.01.2018 16:00:00 2,4 1,9 15 8 - - SSE 1004,7 3,9 0 2,0
21.01.2018 15:00:00 2,2 1,6 16 9 - - S 1005,7 3,1 0 2,2
21.01.2018 14:00:00 2,4 1,3 26 14 - - S 1006,5 8 0 0,6
21.01.2018 13:00:00 2,2 1,1 24 13 - - SSE 1007,9 5 0 1,2
21.01.2018 12:00:00 1,3 0,5 24 13 - - SSE 1009,2 13 0 1,2
21.01.2018 11:00:00 0,7 0,2 15 8 - - SE 1011,1 3,0 0 1,0
21.01.2018 10:00:00 1,4 0,6 16 9 - - SSE 1011,8 2,5 0 0,4
21.01.2018 09:00:00 1,8 1,0 16 9 - - SSE 1012,3 5 0 0,0
21.01.2018 08:00:00 1,7 1,1 9 5 - - SSE 1012,8 2,9 0 0,2
21.01.2018 07:00:00 1,7 1,1 9 5 - - S 1013,1 2,7 0 0,0
21.01.2018 06:00:00 1,4 0,8 11 6 - - SSE 1013,2 3,4 0 0,0
21.01.2018 05:00:00 1,3 0,7 9 5 - - S 1013,5 5 0 0,0
21.01.2018 04:00:00 1,0 0,8 5 3 - - SSE 1013,0 1,7 0 0,0
21.01.2018 03:00:00 1,0 0,7 8 4 - - SSE 1013,0 1,0 0 0,0
21.01.2018 02:00:00 1,7 1,3 8 4 - - S 1012,9 1,7 0 0,0
21.01.2018 01:00:00 1,9 1,6 5 3 - - S 1012,4 1,6 0 0,0
21.01.2018 00:00:00 2,0 1,6 4 2 - - SSW 1011,7 2,2 - 0,0
20.01.2018 23:00:00 2,0 1,7 5 3 - - SSW 1011,4 2,6 0 0,0
20.01.2018 22:00:00 2,0 1,6 5 3 - - SSE 1010,0 2,4 0 0,0
20.01.2018 21:00:00 2,0 1,5 4 2 - - SW 1009,3 2,6 0 0,0
20.01.2018 20:00:00 2,0 1,6 9 5 - - NNW 1008,2 4,4 0 0,0
20.01.2018 19:00:00 1,4 1,2 9 5 - - NNW 1006,6 3,3 0 0,0
20.01.2018 18:00:00 1,5 1,1 5 3 - - NW 1005,3 3,3 0 0,0
20.01.2018 17:00:00 1,7 1,2 5 3 - - WNW 1003,5 4,4 0 0,2
20.01.2018 16:00:00 2,5 1,8 8 4 - - NNW 1002,3 8 0 0,0
20.01.2018 15:00:00 2,6 1,8 5 3 - - N 1000,6 6 0 0,0
20.01.2018 14:00:00 2,5 1,2 0 0 - - N 1000,1 20 0 0,6
20.01.2018 13:00:00 2,4 1,5 4 2 - - SSW 999,9 10 0 0,6
20.01.2018 12:00:00 2,5 1,7 0 0 - - N 1000,0 12 0 0,2
20.01.2018 11:00:00 2,4 1,6 4 2 - - S 1000,1 12 0 0,2
20.01.2018 10:00:00 2,1 1,2 2 1 - - SSE 1000,4 12 0 0,0
20.01.2018 09:00:00 1,5 0,5 5 3 - - SSE 1000,2 16 0 0,0
20.01.2018 08:00:00 2,1 0,7 9 5 - - S 1000,0 19 0 0,2
20.01.2018 07:00:00 1,8 0,5 11 6 - - S 1000,3 15 0 0,0
20.01.2018 06:00:00 1,2 0,4 5 3 - - SSE 1000,9 16 0 0,0
20.01.2018 05:00:00 0,9 0,0 8 4 - - S 1001,2 14 0 0,0
20.01.2018 04:00:00 1,0 0,2 8 4 - - SW 1001,8 19 0 0,0
20.01.2018 03:00:00 0,5 -0,2 8 4 - - S 1002,9 16 0 0,0
20.01.2018 02:00:00 0,7 -0,1 9 5 - - ESE 1003,7 15 0 0,0
20.01.2018 01:00:00 0,5 -0,3 8 4 - - SE 1004,8 15 0 0,0
20.01.2018 00:00:00 2,4 0,7 8 4 - - SW 1005,3 20 - 0,0
19.01.2018 23:00:00 2,4 1,4 8 4 - - SW 1005,6 16 0 1,4
19.01.2018 22:00:00 3,0 1,3 21 11 - - W 1005,9 18 0 0,4
19.01.2018 21:00:00 2,9 1,0 18 10 - - W 1005,6 23 0 0,2
19.01.2018 20:00:00 2,8 -0,2 13 7 - - SW 1005,3 30 0 0,0
19.01.2018 19:00:00 2,5 -0,5 13 7 - - SW 1005,2 35 0 0,0
19.01.2018 18:00:00 3,2 -0,5 13 7 - - WSW 1005,6 40 0 0,0
19.01.2018 17:00:00 3,5 0,0 18 10 46 25 W 1005,4 35 0 0,0
19.01.2018 16:00:00 4,5 0,6 28 15 52 28 W 1005,4 30 42 0,0
19.01.2018 15:00:00 5,1 0,2 26 14 - - W 1004,9 35 48 0,0
19.01.2018 14:00:00 4,9 0,8 28 15 48 26 W 1005,1 30 54 0,0
19.01.2018 13:00:00 5,0 0,0 26 14 - - W 1005,3 45 30 0,0
19.01.2018 12:00:00 4,9 0,6 11 6 - - WSW 1005,7 27 36 0,0
19.01.2018 11:00:00 4,0 0,6 9 5 - - S 1006,1 40 54 0,0
19.01.2018 10:00:00 3,2 0,0 9 5 - - SSW 1006,1 40 30 0,0
19.01.2018 09:00:00 2,0 -0,3 11 6 - - SW 1005,7 35 0 0,0
19.01.2018 08:00:00 1,7 -0,2 15 8 - - WSW 1005,4 20 0 0,0
19.01.2018 07:00:00 1,9 -0,3 11 6 - - SW 1005,2 25 0 0,0
19.01.2018 06:00:00 1,7 0,0 9 5 - - W 1005,1 40 0 0,0
19.01.2018 05:00:00 1,6 0,0 11 6 - - SW 1005,0 40 0 0,0
19.01.2018 04:00:00 2,0 0,1 11 6 - - SW 1005,2 45 0 0,2
19.01.2018 03:00:00 2,8 1,0 26 14 48 26 W 1005,2 5 0 0,4
19.01.2018 02:00:00 2,8 1,4 21 11 - - W 1004,7 4,3 0 0,0
19.01.2018 01:00:00 2,0 0,9 16 9 - - W 1004,6 50 0 1,0
19.01.2018 00:00:00 2,7 1,7 9 5 - - W 1004,4 30 - 0,2
18.01.2018 23:00:00 3,0 2,1 16 9 - - W 1004,1 23 0 0,2
18.01.2018 22:00:00 2,0 0,8 24 13 46 25 W 1003,5 15 0 1,0
18.01.2018 21:00:00 2,3 0,7 9 5 - - W 1003,4 40 0 0,0
18.01.2018 20:00:00 3,1 1,8 26 14 48 26 W 1002,9 5 0 0,8
18.01.2018 19:00:00 2,9 1,9 11 6 - - NW 1002,7 3,6 0 1,4
18.01.2018 18:00:00 2,9 2,1 5 3 - - W 1001,7 21 0 0,2
18.01.2018 17:00:00 3,5 2,4 16 9 - - W 1000,9 10 0 0,8
18.01.2018 16:00:00 3,8 2,5 21 11 - - W 1000,2 26 0 1,6
18.01.2018 15:00:00 3,1 1,5 28 15 - - W 1000,0 2,6 0 3,0
18.01.2018 14:00:00 4,8 3,2 13 7 - - WSW 999,5 30 6 0,4
18.01.2018 13:00:00 4,4 3,0 18 10 - - W 999,5 40 0 0,0
18.01.2018 12:00:00 3,6 2,5 16 9 - - WNW 999,6 35 0 1,0
18.01.2018 11:00:00 3,9 3,1 18 10 - - W 999,3 20 0 1,2
18.01.2018 10:00:00 4,0 2,8 9 5 - - WSW 999,0 24 0 0,0
18.01.2018 09:00:00 3,5 2,7 11 6 - - WSW 998,5 24 0 0,2

tt = Température de l'air
td = dewpoint
ff = Vitesse du vent
fx = gusts
dd = Direction du vent
ppp = reduced air pressure
vv = visibility
sd = Ensoleillement
rr = Quantités de précipitations

stations d'obs. à proximité